• Join FlightAware (Why Join?)
  • Login
  • US Flag 
06:09AM EDT


 

Airport Tracker/Info


-or-


 

Live Flight TrackerFlight Track Log ✈ FLG3667 ✈ 22-Apr-2013 ✈ KGRR - KDTW

Flight Track Log - Related Links

Times and Time Zones

All times are in EDT time to prevent confusion due to time zone crossing. See the FLG3667 flight status page for this flight to view local times or setup timezone preferences in your user account.

Time Position Orientation Groundspeed Altitude Reporting Facility
EDT Latitude Longitude Course Direction KTS MPH feet Rate Location/Type
05:50PM 42.8908 -85.4592 61° Northeast 171 197 2,800  Level Chicago Center
05:51PM 42.9133 -85.3831 68° East 204 235 5,000 2,520 Climbing Chicago Center
05:52PM 42.8333 -85.3392 90° East  Level FlightAware Approximate
05:52PM 42.9397 -85.2856 70° East 261 300 8,100  Level Chicago Center
05:53PM 42.8631 -85.2561 62° Northeast  Level FlightAware Approximate
05:53PM 42.9753 -85.1617 69° East 292 336 10,600  Level Chicago Center
05:54PM 42.8949 -85.1735 62° Northeast  Level FlightAware Approximate
05:54PM 43.0089 -85.0392 69° East 343 395 12,400  Level Chicago Center
05:55PM 42.9275 -85.0915 60° Northeast  Level FlightAware Approximate
05:56PM 42.9675 -84.9979 61° Northeast  Level FlightAware Approximate
05:56PM 43.0358 -84.9072 74° East 364 419 14,500  Level Chicago Center
05:57PM 43.0142 -84.7700 102° East 365 420 15,100 240 Climbing Chicago Center
05:58PM 42.9933 -84.6392 102° East 356 410 15,100  Level Chicago Center
05:59PM 42.9711 -84.5081 103° East 355 409 15,100  Level Chicago Center
06:00PM 42.9450 -84.3486 103° East 359 413 15,100  Level Chicago Center
06:00PM 42.9233 -84.2381 105° East 360 414 15,200  Climbing Cleveland Center
06:01PM 42.9197 -84.2236 109° East 360 414 15,100 -480 Descending Cleveland Center
06:01PM 42.9019 -84.1178 103° East 363 418 14,800 -600 Descending Cleveland Center
06:02PM 42.8967 -84.0919 106° East 360 414 14,500 -1,080 Descending Cleveland Center
06:02PM 42.8769 -83.9803 104° East 361 415 13,700 -1,020 Descending Cleveland Center
06:03PM 42.8756 -83.9606 95° East 360 414 13,500 -1,200 Descending Cleveland Center
06:03PM 42.8578 -83.8547 103° East 336 387 12,500 -1,320 Descending Cleveland Center
06:04PM 42.8542 -83.8347 104° East 354 407 12,200 -420 Descending Cleveland Center
06:04PM 42.8336 -83.7458 107° East 301 346 12,100 -240 Descending Cleveland Center
06:05PM 42.8217 -83.7311 138° Southeast 325 374 12,000 -720 Descending Cleveland Center
06:05PM 42.7581 -83.6911 155° Southeast 287 330 11,400 -840 Descending Cleveland Center
06:06PM 42.7497 -83.6850 152° Southeast 278 320 11,200 -720 Descending Cleveland Center
06:07PM 42.6842 -83.6450 156° South 287 330 10,700 -780 Descending Cleveland Center
06:07PM 42.6403 -83.6183 156° South 282 325 10,100 -1,080 Descending FAA TRACON SMA TRACON (SMA)
06:07PM 42.6183 -83.6056 157° South 282 325 9,700 -1,560 Descending FAA TRACON SMA TRACON (SMA)
06:08PM 42.6008 -83.5844 138° Southeast 283 326 9,100 -1,980 Descending FAA TRACON SMA TRACON (SMA)
06:08PM 42.5897 -83.5469 112° Southeast 273 314 8,400 -1,800 Descending FAA TRACON SMA TRACON (SMA)
06:08PM 42.5817 -83.5169 110° East 275 316 7,900 -1,680 Descending FAA TRACON SMA TRACON (SMA)
06:09PM 42.5753 -83.5014 119° Southeast 257 296 7,400 -1,680 Descending Cleveland Center
06:10PM 42.5525 -83.4131 109° East 257 296 6,100 -960 Descending Cleveland Center
06:10PM 42.5406 -83.3642 108° East 224 258 6,100 -240 Level FAA TRACON SMA TRACON (SMA)
06:10PM 42.5292 -83.3447 128° Southeast 224 258 5,900 -600 Descending FAA TRACON SMA TRACON (SMA)
06:11PM 42.5156 -83.3278 137° Southeast 209 241 5,700 -720 Descending FAA TRACON SMA TRACON (SMA)
06:11PM 42.4847 -83.2903 138° Southeast 209 241 5,200 -540 Descending FAA TRACON SMA TRACON (SMA)
06:12PM 42.4722 -83.2744 137° Southeast 202 232 5,200 -480 Level FAA TRACON SMA TRACON (SMA)
06:12PM 42.4550 -83.2658 160° South 179 206 4,900 -960 Descending FAA TRACON SMA TRACON (SMA)
06:12PM 42.4417 -83.2622 169° South 176 203 4,600 -1,080 Descending FAA TRACON SMA TRACON (SMA)
06:13PM 42.4236 -83.2572 168° South 179 206 4,200 -780 Descending FAA TRACON SMA TRACON (SMA)
06:13PM 42.4061 -83.2539 172° South 176 203 4,100 -180 Descending FAA TRACON SMA TRACON (SMA)
06:13PM 42.3911 -83.2539 180° South 177 204 4,100  Level FAA TRACON SMA TRACON (SMA)
06:14PM 42.3736 -83.2572 188° South 180 207 4,100 -300 Level FAA TRACON SMA TRACON (SMA)
06:14PM 42.3597 -83.2664 206° Southwest 176 203 3,900 -900 Descending FAA TRACON SMA TRACON (SMA)
06:14PM 42.3433 -83.2792 210° Southwest 182 209 3,500 -1,080 Descending FAA TRACON SMA TRACON (SMA)
06:15PM 42.3308 -83.2897 212° Southwest 184 212 3,200 -1,080 Descending FAA TRACON SMA TRACON (SMA)
06:15PM 42.3139 -83.3019 208° Southwest 182 209 2,800 -1,020 Descending FAA TRACON SMA TRACON (SMA)
06:16PM 42.2881 -83.3208 208° Southwest 168 193 2,200 -900 Descending FAA TRACON SMA TRACON (SMA)